dimanche 20 Oct 19
10 : 30






Informations :

ClDosNomVoirTempsS.Cat.CC.Club-
1635LORGUE Theo00:18:59 MCA1LIMOGES ATHLE*
2652RICOL Pavel00:19:10 MCA2AS SAINT-JUNIEN
3679CUISINIER Dorian00:19:18 MMI1
4661VAN EUNEN Raphael00:19:41 MCA3AS SAINT-JUNIEN
5701GAUTREIX Elliot00:19:57 MSE1
6615DABOS Teo00:19:59 MMI2ROCHECHOUART OLYMPIC CLUB ATHL
7693BEAUBERT Nicolas00:20:35 MES1AS SAINT-JUNIEN
8697DESPROGES Gaylord00:20:41 MSE2PANA LOISIRS
9663VERSABEAU Mathis00:20:48 MCA4
10634LORGUE Quentin00:21:10 MSE3LIMOGES ATHLE*
11709DELAGE Paul00:21:28 MCA5
12639MOREAU Romain00:21:41 MCA6AS SAINT-JUNIEN
13653ROBERT Melina00:22:08 FES1LIMOGES ATHLE*
14611BROTHIER Alex00:22:25 MMI3AS SAINT-JUNIEN
15654ROCHE Clement00:22:38 MMI4AS SAINT-JUNIEN
16640ONILLON Thomas00:22:47 MSE4PANA LOISIRS
17683ANTON Mathieu00:23:10 MMI5
18629JUDE Matthieu00:23:26 MMI6AS SAINT-JUNIEN
19687GADOREAU Florian00:23:30 MSE5
20659TROUTAUD Clement00:23:51 MMI7LIMOGES ATHLE*
21720BARTHELET Raphael00:24:06 MSE6
22624GOUVERNET Franck00:24:35 MV21CLUB SPORTIF BELLAC ATHLETISME
23650REBERAT Hortense00:24:51 FSE1TEAM MUD RUN
24662NICOLAS Denis00:25:14 MV31ROCHECHOUART OLYMPIC CLUB ATHL
25696ESCALES Aurelien00:25:26 MSE7
26601BEAUDET Clara00:25:32 FMI1AS SAINT-JUNIEN
27616DUCHIRON Ian00:25:53 MMI8pas cap le dorat
28602BENY Dorian00:26:13 MMI9AS SAINT-JUNIEN ATHLETISME
29637MARTIN Theo00:26:22 MMI10AS SAINT-JUNIEN
30684LATOUR Nicolas00:26:38 MV11
31606BONNET Guillaume00:26:58 MSE8CLUB SPORTIF BELLAC ATHLETISME
32676GOTTE Julie00:26:59 FCA1AS SAINT-JUNIEN
33711TOURISSAUD Solene00:27:23 FMI2
34622GENESTE Samantha00:27:29 FMI3LIMOGES ATHLE*
35627HENRY Lionel00:28:09 MV12
36657SIRIEIX Jean-pierre00:28:16 MV22spiridon limousin
37625GUERY Mélanie00:28:29 FSE2
38292HUBER Celia00:28:32 FJU1
39689GOURCEROL Marie00:29:11 FMI4
40648QUICHAUD Jean-michel00:29:24 MV32
41672GISPEN Willem00:29:27 MV13
42656SERIER Maxime00:29:27 MES2
43708CHOTTE Corentin00:29:37 MCA7
44719ROULET Lison00:29:40 FCA2
45685BOLTEAU Maurice00:30:04 MV33
46688GOURCEROL Yannick00:30:09 MV14
47664CANTORO Franck00:30:28 MV15
48646POULIDOR Beatrice00:30:31 FSE3LIMOGES MUD RUN
49649RAYMOND Audrey00:30:31 FSE4
50638MASSON Gwendolyne00:30:34 FSE5
51600ADRIX Freddy00:30:40 MSE9
52665CANTORO Veronique00:30:50 FV11
53668FOURGEAUD Stéphanie00:30:51 FV12
54626HARO Bruno00:31:02 MV23
55619GAGNAIRE Yohan00:31:23 MMI11
56613CADET Frédérique00:31:26 FV13
57706REBOUL Isabelle00:31:27 FV14
58702POURIEUX Sophie00:31:32 FV15
59608BOUTANT Charlotte00:31:44 FSE6
60630LECOMTE Raphael00:32:02 MV16
61698MONSOREZ Jacques00:32:23 MV24
62618FAURE Fréderique00:32:42 FSE7
63667ROCHER Philippe00:32:58 MV25
64691PAILLOT Nelly00:33:18 FV21
65695DELANDE Katia00:33:21 FV16
66603BERTAUD Luc00:33:22 MV34
67614CARRICART Arnaud00:33:22 MV17
68669BOUTANT Annie00:33:29 FV22
69636MALAGNOUX Marie-laure00:34:02 FV17
7031CAZETTES Mahé00:34:03 MSE10
71651RESTOUEIX Elodie00:34:11 FSE8
72686TROUILLAUD Teddy00:34:11 MSE11
73666DUPUY Coralie00:34:33 FSE9
74673LANDEMAIRE Caroline00:34:33 FV18
75682HEURTAUX Fabienne00:34:36 FV23
76678CUISINIER Margot00:34:36 FJU2
77609BRILLANT Isabelle00:34:48 FV24CLUB SPORTIF BELLAC ATHLETISME
78716ROMANET Stéphane00:34:52 MV41
79670LAGORCE Gaëlle00:34:56 FSE10
80690GAUTHIER Marylene00:35:02 FV19
81705RAMAT ?00:35:18 MV26
82671JIMENEZ Aurelie00:35:38 FSE11
83660TUYERAS Floriane00:35:53 FJU3
84658SORBY Marie00:35:59 FV110
85628JACOB Valerie00:36:07 FV111CLUB SPORTIF BELLAC ATHLETISME
86681KUBBINGA Julien00:36:20 MSE12
87699FAYE Papamalick00:36:20 MSE13
88612BURBAUD Camille00:36:28 FCA3
89704CHAMPIGNY Carine00:36:37 FV112
90680KUBBINGA Isabelle00:36:50 FV31
91700BOUDIFA Amandine00:36:50 FV113
92643PASSEAU Isabelle00:36:55 FSE12
93607BOUCHOT Laure00:36:55 FSE13
94674FERNANDES Sonia00:37:15 FV114
95710CHEVALIER ?00:37:34 MSE14
96623GONNET Angélique00:37:39 FV115
97703CHAUVIN Virginie00:37:43 FV116
98644PASTRE Caroline00:37:49 FSE14PANA LOISIR
99712PERRIN Cecile00:37:49 FSE15
100645PEYROT Morgane00:38:16 FSE16
101692BECKETT Merriel00:38:40 FV25hakuna matata running club
102620GAILLARD Laure00:38:59 FV117
103621GAUDIN Karine00:39:16 FV118
104694LAMIGE Angelina00:39:18 FSE17
105641PALUK Anne00:39:19 FSE18
106617DURKOVICS Andreea00:39:19 FSE19
107707FORSANS Lucille00:39:21 FSE20
108605BLANCHON Nathalie00:39:51 FV119
109717MERUER Alice00:39:59 FSE21
110718HERBAUT Laeticia00:40:10 FSE22
111610BRISSAUD Zoé00:40:40 FMI5
112713JACOB Clémentine00:42:26 FSE23CEPAC
113714FUGAZZI Morgane00:42:26 FSE24CEPAC
114715BAIGE Nicolas00:42:26 MSE15
115655SALINGUE Stéphanie00:43:01 FSE25aixe running club
116604BIGNAUD Christelle00:43:01 FV120aixe running club 87
117675DESVILLE Laurence00:46:49 FSE26
118677GOTTE Valérie00:49:05 FV121


4 Comments.



Laisser un commentaire






Le resenti (3 choix possibles)

  • Je reviens l’année prochaine (75%, 3 Votes)
  • Ambiance chaleureuse et convivial (25%, 1 Votes)
  • Plus pour moi (0%, 0 Votes)
  • J’ai battu mon record (0%, 0 Votes)
  • Bonne restauration (0%, 0 Votes)

Total Voters: 3

Loading ... Loading ...

Le parcours (4 choix possibles)

  • Ca grimpe dur ! (33%, 2 Votes)
  • Balisage impeccable (33%, 2 Votes)
  • rien à dire, impeccable (17%, 1 Votes)
  • super vue, paysage magnifique (17%, 1 Votes)
  • Dur dur (0%, 0 Votes)
  • Trop de route ! (0%, 0 Votes)
  • Rapide Sélectif (0%, 0 Votes)
  • Attention ça glisse ! (0%, 0 Votes)
  • Je me suis perdu (0%, 0 Votes)

Total Voters: 4

Loading ... Loading ...

Ravitaillement (3 choix possibles)

  • Peu nombreux sur le parcours (50%, 3 Votes)
  • Peu fourni (17%, 1 Votes)
  • Des dechets bien recyclés (17%, 1 Votes)
  • Bien placé sur le parcours (17%, 1 Votes)
  • Quel festin ! (0%, 0 Votes)
  • Mal placé sur le parcours (0%, 0 Votes)

Total Voters: 4

Loading ... Loading ...

Les récompenses (3 choix possibles)

  • Super récompense (100%, 2 Votes)
  • Idée originale (0%, 0 Votes)
  • Bien doté (0%, 0 Votes)
  • On a trop attendu (0%, 0 Votes)

Total Voters: 2

Loading ... Loading ...

La météo (2 choix possibles)

  • Impeccable pour courir (67%, 2 Votes)
  • Quoi de mieux ! (33%, 1 Votes)
  • Quelle chaleur ! (0%, 0 Votes)
  • Je me suis bien trempé(e) (0%, 0 Votes)
  • Gla gla ! (0%, 0 Votes)
  • trop de vent (0%, 0 Votes)

Total Voters: 2

Loading ... Loading ...